N55JG KCPK-KJGG

Flight info

Callsign N55JG
Flight time 0h 30m
Altitude 4500
Route CALEY
Aircraft C172/L-SFG/C

Departure

Time 2026-05-06 19:38
Airport Chesapeake Regional Airport (KCPK)

Arrival

Time 2026-05-06 20:09
Airport Williamsburg Jamestown Airport (KJGG)
Time Latitude Longitude Altitude Speed Heading
2026-05-06 19:32 36.66555 -76.32383 24 ft 0 kts 313°
2026-05-06 19:34 36.66578 -76.32377 24 ft 8 kts 46°
2026-05-06 19:34 36.66601 -76.32286 24 ft 15 kts 95°
2026-05-06 19:35 36.66615 -76.32185 24 ft 17 kts 34°
2026-05-06 19:35 36.66731 -76.32079 24 ft 20 kts 36°
2026-05-06 19:35 36.66834 -76.31984 25 ft 17 kts 39°
2026-05-06 19:35 36.66925 -76.31899 25 ft 15 kts 38°
2026-05-06 19:36 36.67004 -76.31827 25 ft 13 kts 37°
2026-05-06 19:36 36.67071 -76.31763 25 ft 11 kts 37°
2026-05-06 19:36 36.67130 -76.31710 25 ft 10 kts 38°
2026-05-06 19:36 36.67181 -76.31661 25 ft 9 kts 36°
2026-05-06 19:37 36.67219 -76.31607 25 ft 8 kts 92°
2026-05-06 19:37 36.67210 -76.31584 25 ft 0 kts 125°
2026-05-06 19:37 36.67206 -76.31576 25 ft 8 kts 131°
2026-05-06 19:37 36.67111 -76.31553 26 ft 21 kts 221°
2026-05-06 19:38 36.66923 -76.31735 28 ft 55 kts 217°
2026-05-06 19:38 36.66556 -76.32092 158 ft 70 kts 219°
2026-05-06 19:38 36.66175 -76.32446 385 ft 73 kts 216°
2026-05-06 19:38 36.65872 -76.32829 755 ft 62 kts 240°
2026-05-06 19:39 36.65786 -76.33377 969 ft 65 kts 259°
2026-05-06 19:39 36.66161 -76.33847 1195 ft 95 kts 332°
2026-05-06 19:39 36.66868 -76.33885 1394 ft 107 kts 354°
2026-05-06 19:39 36.67587 -76.33829 1589 ft 103 kts 354°
2026-05-06 19:40 36.68293 -76.33747 1844 ft 101 kts 354°
2026-05-06 19:40 36.68973 -76.33674 2119 ft 96 kts 353°
2026-05-06 19:40 36.69661 -76.33599 2274 ft 105 kts 351°
2026-05-06 19:40 36.70365 -76.33636 2439 ft 97 kts 333°
2026-05-06 19:41 36.71027 -76.33864 2582 ft 99 kts 323°
2026-05-06 19:41 36.71673 -76.34180 2808 ft 96 kts 319°
2026-05-06 19:41 36.72263 -76.34507 3010 ft 90 kts 314°
2026-05-06 19:41 36.72812 -76.34852 3244 ft 83 kts 309°
2026-05-06 19:42 36.73250 -76.35245 3441 ft 75 kts 300°
2026-05-06 19:42 36.73661 -76.35660 3613 ft 73 kts 298°
2026-05-06 19:42 36.74048 -76.36103 3753 ft 77 kts 295°
2026-05-06 19:42 36.74453 -76.36554 3956 ft 79 kts 297°
2026-05-06 19:43 36.74939 -76.36955 4154 ft 86 kts 315°
2026-05-06 19:43 36.75548 -76.37174 4310 ft 93 kts 324°
2026-05-06 19:43 36.76136 -76.37514 4405 ft 94 kts 310°
2026-05-06 19:43 36.76685 -76.37959 4516 ft 94 kts 307°
2026-05-06 19:44 36.77232 -76.38428 4512 ft 101 kts 312°
2026-05-06 19:44 36.77870 -76.38820 4540 ft 107 kts 318°
2026-05-06 19:44 36.78518 -76.39269 4537 ft 105 kts 308°
2026-05-06 19:44 36.79134 -76.39774 4538 ft 106 kts 312°
2026-05-06 19:45 36.79770 -76.40253 4537 ft 108 kts 313°
2026-05-06 19:45 36.80413 -76.40718 4539 ft 108 kts 314°
2026-05-06 19:45 36.81073 -76.41187 4539 ft 110 kts 315°
2026-05-06 19:45 36.81747 -76.41662 4538 ft 112 kts 316°
2026-05-06 19:46 36.82429 -76.42142 4538 ft 113 kts 315°
2026-05-06 19:46 36.83113 -76.42619 4535 ft 113 kts 315°
2026-05-06 19:46 36.83799 -76.43098 4534 ft 113 kts 315°
2026-05-06 19:46 36.84486 -76.43578 4535 ft 113 kts 315°
2026-05-06 19:47 36.85163 -76.44053 4533 ft 113 kts 315°
2026-05-06 19:47 36.85847 -76.44530 4533 ft 112 kts 315°
2026-05-06 19:47 36.86529 -76.45008 4537 ft 113 kts 315°
2026-05-06 19:47 36.87208 -76.45482 4534 ft 111 kts 315°
2026-05-06 19:48 36.87876 -76.45949 4527 ft 109 kts 315°
2026-05-06 19:48 36.88538 -76.46414 4524 ft 109 kts 315°
2026-05-06 19:48 36.89190 -76.46870 4524 ft 108 kts 315°
2026-05-06 19:48 36.89845 -76.47329 4524 ft 107 kts 315°
2026-05-06 19:49 36.90495 -76.47786 4522 ft 107 kts 315°
2026-05-06 19:49 36.91148 -76.48244 4527 ft 108 kts 315°
2026-05-06 19:49 36.91801 -76.48702 4526 ft 110 kts 315°
2026-05-06 19:49 36.92475 -76.49173 4529 ft 111 kts 316°
2026-05-06 19:50 36.93151 -76.49647 4529 ft 111 kts 316°
2026-05-06 19:50 36.93817 -76.50114 4526 ft 111 kts 316°
2026-05-06 19:50 36.94490 -76.50581 4560 ft 108 kts 312°
2026-05-06 19:50 36.95141 -76.51036 4524 ft 106 kts 311°
2026-05-06 19:51 36.95775 -76.51481 4507 ft 103 kts 310°
2026-05-06 19:51 36.96400 -76.51923 4507 ft 103 kts 310°
2026-05-06 19:51 36.97033 -76.52369 4508 ft 105 kts 310°
2026-05-06 19:51 36.97666 -76.52815 4511 ft 106 kts 311°
2026-05-06 19:52 36.98314 -76.53270 4512 ft 107 kts 311°
2026-05-06 19:52 36.98964 -76.53727 4513 ft 107 kts 311°
2026-05-06 19:52 36.99615 -76.54183 4512 ft 106 kts 311°
2026-05-06 19:52 37.00251 -76.54629 4511 ft 106 kts 311°
2026-05-06 19:53 37.00891 -76.55078 4512 ft 105 kts 311°
2026-05-06 19:53 37.01524 -76.55523 4503 ft 104 kts 311°
2026-05-06 19:53 37.02151 -76.55963 4498 ft 102 kts 311°
2026-05-06 19:53 37.02768 -76.56398 4495 ft 101 kts 311°
2026-05-06 19:54 37.03368 -76.56820 4496 ft 99 kts 310°
2026-05-06 19:54 37.03968 -76.57243 4494 ft 99 kts 310°
2026-05-06 19:54 37.04565 -76.57663 4495 ft 98 kts 310°
2026-05-06 19:54 37.05162 -76.58084 4495 ft 98 kts 310°
2026-05-06 19:55 37.05761 -76.58505 4495 ft 98 kts 310°
2026-05-06 19:55 37.06351 -76.58918 4539 ft 94 kts 310°
2026-05-06 19:55 37.06923 -76.59322 4549 ft 95 kts 310°
2026-05-06 19:55 37.07494 -76.59726 4551 ft 96 kts 310°
2026-05-06 19:56 37.08076 -76.60136 4553 ft 96 kts 310°
2026-05-06 19:56 37.08661 -76.60548 4553 ft 96 kts 310°
2026-05-06 19:56 37.09246 -76.60961 4552 ft 96 kts 310°
2026-05-06 19:56 37.09831 -76.61373 4552 ft 96 kts 310°
2026-05-06 19:57 37.10417 -76.61785 4554 ft 96 kts 310°
2026-05-06 19:57 37.10995 -76.62193 4554 ft 97 kts 310°
2026-05-06 19:57 37.11579 -76.62605 4554 ft 96 kts 310°
2026-05-06 19:57 37.12163 -76.63016 4553 ft 96 kts 310°
2026-05-06 19:58 37.12746 -76.63428 4553 ft 96 kts 310°
2026-05-06 19:58 37.13328 -76.63839 4552 ft 96 kts 309°
2026-05-06 19:58 37.13896 -76.64250 4505 ft 93 kts 310°
2026-05-06 19:58 37.14445 -76.64650 4419 ft 91 kts 308°
2026-05-06 19:59 37.14963 -76.65079 4342 ft 89 kts 304°
2026-05-06 19:59 37.15491 -76.65517 4229 ft 95 kts 310°
2026-05-06 19:59 37.16081 -76.65928 4108 ft 97 kts 309°
2026-05-06 19:59 37.16634 -76.66389 3982 ft 95 kts 304°
2026-05-06 20:00 37.17138 -76.66886 3877 ft 91 kts 300°
2026-05-06 20:00 37.17669 -76.67357 3780 ft 98 kts 313°
2026-05-06 20:00 37.18285 -76.67755 3622 ft 98 kts 308°
2026-05-06 20:00 37.18808 -76.68285 3421 ft 95 kts 295°
2026-05-06 20:01 37.19258 -76.68871 3210 ft 94 kts 293°
2026-05-06 20:01 37.19723 -76.69499 2923 ft 99 kts 292°
2026-05-06 20:01 37.20146 -76.70174 2659 ft 98 kts 290°
2026-05-06 20:01 37.20557 -76.70876 2367 ft 102 kts 292°
2026-05-06 20:02 37.21076 -76.71520 2110 ft 111 kts 310°
2026-05-06 20:02 37.21793 -76.71989 1979 ft 120 kts 328°
2026-05-06 20:02 37.22624 -76.72191 2062 ft 123 kts 356°
2026-05-06 20:02 37.23480 -76.71812 2032 ft 137 kts 22°
2026-05-06 20:03 37.24298 -76.71205 1991 ft 136 kts 32°
2026-05-06 20:03 37.25097 -76.70565 1952 ft 138 kts 33°
2026-05-06 20:03 37.25832 -76.69858 1920 ft 126 kts 46°
2026-05-06 20:03 37.26557 -76.69180 1688 ft 131 kts 23°
2026-05-06 20:04 37.27386 -76.68992 1575 ft 111 kts 336°
2026-05-06 20:04 37.27958 -76.69433 1402 ft 85 kts 283°
2026-05-06 20:04 37.27917 -76.70030 1269 ft 69 kts 229°
2026-05-06 20:04 37.27510 -76.70376 1129 ft 73 kts 212°
2026-05-06 20:05 37.27041 -76.70629 1033 ft 74 kts 198°
2026-05-06 20:05 37.26527 -76.70689 973 ft 76 kts 191°
2026-05-06 20:05 37.25999 -76.70626 947 ft 79 kts 180°
2026-05-06 20:05 37.25490 -76.70271 999 ft 89 kts 152°
2026-05-06 20:06 37.25100 -76.69587 1003 ft 97 kts 137°
2026-05-06 20:06 37.24855 -76.68803 971 ft 99 kts 126°
2026-05-06 20:06 37.24606 -76.67992 833 ft 96 kts 136°
2026-05-06 20:06 37.24212 -76.67431 824 ft 74 kts 165°
2026-05-06 20:07 37.23803 -76.67525 769 ft 64 kts 214°
2026-05-06 20:07 37.23443 -76.67869 574 ft 68 kts 208°
2026-05-06 20:07 37.23157 -76.68317 611 ft 68 kts 246°
2026-05-06 20:07 37.23084 -76.68912 476 ft 72 kts 254°
2026-05-06 20:08 37.23066 -76.69334 479 ft 74 kts 263°
2026-05-06 20:08 37.23272 -76.70194 385 ft 80 kts 285°
2026-05-06 20:08 37.23534 -76.70783 290 ft 73 kts 296°
2026-05-06 20:08 37.23711 -76.71155 71 ft 77 kts 296°
2026-05-06 20:09 37.23925 -76.71639 41 ft 54 kts 298°
2026-05-06 20:09 37.24081 -76.71994 54 ft 37 kts 304°
2026-05-06 20:09 37.24148 -76.72071 55 ft 2 kts 46°
2026-05-06 20:09 37.24166 -76.72025 57 ft 8 kts 89°
2026-05-06 20:10 37.24153 -76.71944 52 ft 7 kts 16°
2026-05-06 20:10 37.24169 -76.71957 53 ft 0 kts 311°
2026-05-06 20:10 37.24171 -76.71961 53 ft 0 kts 303°